Alva, OK

8:32 PM CDT on July 25, 2017 (GMT -0500)
Alva Regional

Weather History for KAVK - September, 2012

Change the Weather History Date:

Wednesday, September 12, 2012

  Actual Average Record
Temperature  
Mean Temperature 80 °F -  
Max Temperature 96 °F 89 °F 104 °F (2011)
Min Temperature 64 °F 62 °F 46 °F (1950)
Cooling Degree Days 15    
Growing Degree Days 30 (Base 50)    
Moisture  
Dew Point 49 °F    
Average Humidity 36    
Maximum Humidity 60    
Minimum Humidity 19    
Precipitation  
Precipitation 0.00 in - - ()
Sea Level Pressure  
Sea Level Pressure 29.95 in    
Wind  
Wind Speed 16 mph (South)    
Max Wind Speed 28 mph    
Max Gust Speed 38 mph    
Visibility 10 miles    
Events      
Averages and records for this station are not official NWS values.
T = Trace of Precipitation, MM = Missing Value Source: NWS Daily Summary

Daily Weather History Graph

Daily Weather History Graph

Search for Another Location

Airport or City:

Trip Planner

Search our weather history database for the weather conditions in past years. The results will help you decide how hot, cold, wet, or windy it might be!

Date:

Astronomy

Sep. 12, 2012 Rise Set
Actual Time 7:14 AM CDT 7:45 PM CDT
Civil Twilight 6:48 AM CDT 8:11 PM CDT
Nautical Twilight 6:18 AM CDT 8:42 PM CDT
Astronomical Twilight 5:46 AM CDT 9:13 PM CDT
Moon 3:37 AM CDT (9/12) 5:30 PM CDT (9/12)
Length of Visible Light 13h 22m
Length of Day
12h 30m
Waning Crescent, 13% of the Moon is Illuminated
Sep 12
Waning Crescent
Sep 15
New
Sep 22
First Quarter
Sep 29
Full
Oct 8
Last Quarter

Hourly Weather History & Observations

Time (CDT) Temp. Heat Index Dew Point Humidity Pressure Visibility Wind Dir Wind Speed Gust Speed Precip Events Conditions
12:00 AM 77.0 °F - 46.4 °F 34% 29.94 in 10.0 mi South 18.4 mph 23.0 mph N/A   Clear
12:40 AM 75.2 °F - 46.4 °F 36% 29.93 in 10.0 mi South 17.3 mph 23.0 mph N/A   Clear
1:00 AM 75.2 °F - 46.4 °F 36% 29.93 in 10.0 mi South 16.1 mph - N/A   Clear
1:20 AM 75.2 °F - 46.4 °F 36% 29.93 in 10.0 mi South 13.8 mph - N/A   Clear
1:40 AM 75.2 °F - 46.4 °F 36% 29.94 in 10.0 mi South 13.8 mph 21.9 mph N/A   Clear
2:00 AM 75.2 °F - 46.4 °F 36% 29.94 in 10.0 mi South 15.0 mph - N/A   Clear
2:20 AM 75.2 °F - 46.4 °F 36% 29.94 in 10.0 mi South 13.8 mph 24.2 mph N/A   Clear
2:40 AM 75.2 °F - 46.4 °F 36% 29.93 in 10.0 mi South 12.7 mph 19.6 mph N/A   Clear
3:00 AM 75.2 °F - 46.4 °F 36% 29.93 in 10.0 mi South 13.8 mph 19.6 mph N/A   Clear
3:20 AM 75.2 °F - 46.4 °F 36% 29.93 in 10.0 mi South 15.0 mph - N/A   Clear
3:40 AM 73.4 °F - 46.4 °F 38% 29.93 in 10.0 mi South 13.8 mph - N/A   Clear
4:00 AM 73.4 °F - 46.4 °F 38% 29.92 in 10.0 mi South 11.5 mph - N/A   Clear
4:20 AM 73.4 °F - 46.4 °F 38% 29.92 in 10.0 mi South 10.4 mph - N/A   Clear
4:40 AM 71.6 °F - 46.4 °F 41% 29.92 in 10.0 mi South 9.2 mph - N/A   Clear
5:00 AM 71.6 °F - 46.4 °F 41% 29.92 in 10.0 mi South 9.2 mph - N/A   Clear
5:20 AM 69.8 °F - 48.2 °F 46% 29.93 in 10.0 mi South 10.4 mph - N/A   Clear
5:40 AM 69.8 °F - 48.2 °F 46% 29.93 in 10.0 mi South 11.5 mph - N/A   Clear
6:00 AM 68.0 °F - 48.2 °F 49% 29.93 in 10.0 mi South 10.4 mph - N/A   Clear
6:20 AM 68.0 °F - 48.2 °F 49% 29.93 in 10.0 mi South 10.4 mph - N/A   Clear
6:40 AM 68.0 °F - 48.2 °F 49% 29.92 in 10.0 mi South 10.4 mph - N/A   Clear
7:00 AM 66.2 °F - 48.2 °F 52% 29.93 in 10.0 mi SSE 9.2 mph - N/A   Clear
7:20 AM 64.4 °F - 48.2 °F 56% 29.93 in 10.0 mi SSE 8.1 mph - N/A   Clear
7:40 AM 66.2 °F - 48.2 °F 52% 29.93 in 10.0 mi SSE 9.2 mph - N/A   Clear
8:00 AM 68.0 °F - 50.0 °F 52% 29.94 in 10.0 mi South 12.7 mph - N/A   Clear
8:20 AM 71.6 °F - 50.0 °F 46% 29.94 in 10.0 mi South 17.3 mph - N/A   Clear
8:40 AM 73.4 °F - 50.0 °F 44% 29.93 in 10.0 mi South 13.8 mph - N/A   Clear
9:00 AM 75.2 °F - 50.0 °F 41% 29.94 in 10.0 mi SSW 12.7 mph 18.4 mph N/A   Clear
9:20 AM 80.6 °F - 48.2 °F 32% 29.97 in 10.0 mi SW 17.3 mph 20.7 mph N/A   Clear
9:40 AM 80.6 °F - 48.2 °F 32% 29.95 in 10.0 mi SSW 20.7 mph 26.5 mph N/A   Clear
10:00 AM 82.4 °F - 48.2 °F 30% 29.95 in 10.0 mi South 20.7 mph 25.3 mph N/A   Clear
10:20 AM 84.2 °F - 48.2 °F 29% 29.95 in 10.0 mi SSW 16.1 mph 25.3 mph N/A   Clear
10:40 AM 84.2 °F - 48.2 °F 29% 29.96 in 10.0 mi South 18.4 mph 21.9 mph N/A   Clear
11:00 AM 86.0 °F - 48.2 °F 27% 29.96 in 10.0 mi South 16.1 mph 23.0 mph N/A   Clear
11:20 AM 87.8 °F - 48.2 °F 25% 29.96 in 10.0 mi SSW 17.3 mph 27.6 mph N/A   Clear
11:40 AM 89.6 °F - 48.2 °F 24% 29.95 in 10.0 mi SSW 20.7 mph 26.5 mph N/A   Clear
12:00 PM 89.6 °F - 48.2 °F 24% 29.95 in 10.0 mi SSW 18.4 mph 27.6 mph N/A   Clear
12:20 PM 91.4 °F - 50.0 °F 24% 29.94 in 10.0 mi SSW 13.8 mph 27.6 mph N/A   Clear
12:40 PM 93.2 °F - 50.0 °F 23% 29.94 in 10.0 mi South 19.6 mph 27.6 mph N/A   Clear
1:00 PM 89.6 °F - 48.2 °F 24% 29.93 in 10.0 mi SSW 21.9 mph 29.9 mph N/A   Clear
1:20 PM 93.2 °F - 50.0 °F 23% 29.93 in 10.0 mi SSW 26.5 mph 32.2 mph N/A   Clear
1:40 PM 95.0 °F - 48.2 °F 20% 29.92 in 10.0 mi SSW 27.6 mph 34.5 mph N/A   Clear
2:00 PM 96.8 °F - 48.2 °F 19% 29.92 in 10.0 mi SSW 20.7 mph 31.1 mph N/A   Clear
2:20 PM 96.8 °F - 48.2 °F 19% 29.91 in 10.0 mi South 23.0 mph 29.9 mph N/A   Clear
2:40 PM 96.8 °F - 48.2 °F 19% 29.91 in 10.0 mi SSW 19.6 mph 34.5 mph N/A   Clear
3:00 PM 96.8 °F - 50.0 °F 20% 29.90 in 10.0 mi South 25.3 mph 34.5 mph N/A   Clear
3:20 PM 96.8 °F - 50.0 °F 20% 29.90 in 10.0 mi SSW 24.2 mph 36.8 mph N/A   Clear
3:40 PM 95.0 °F - 48.2 °F 20% 29.90 in 10.0 mi SW 25.3 mph 31.1 mph N/A   Clear
5:00 PM 96.8 °F - 50.0 °F 20% 29.89 in 10.0 mi South 25.3 mph 31.1 mph N/A   Clear
5:40 PM 95.0 °F - 50.0 °F 22% 29.90 in 1.8 mi SSW 23.0 mph 28.8 mph N/A   Haze
6:00 PM 93.2 °F - 50.0 °F 23% 29.90 in 5.0 mi SSW 19.6 mph 27.6 mph N/A   Haze
6:20 PM 93.2 °F - 50.0 °F 23% 29.91 in 2.5 mi SSW 19.6 mph 28.8 mph N/A   Haze
6:40 PM 91.4 °F - 50.0 °F 24% 29.91 in 4.0 mi SSW 18.4 mph 26.5 mph N/A   Haze
7:00 PM 91.4 °F - 50.0 °F 24% 29.93 in 1.5 mi WSW 19.6 mph 31.1 mph N/A   Haze
7:20 PM 84.2 °F 82.8 °F 53.6 °F 35% 29.96 in 10.0 mi NNW 17.3 mph 25.3 mph N/A   Mostly Cloudy
7:40 PM 82.4 °F 81.4 °F 53.6 °F 37% 29.97 in 10.0 mi NNW 11.5 mph 24.2 mph N/A   Partly Cloudy
8:00 PM 82.4 °F 81.4 °F 53.6 °F 37% 29.97 in 10.0 mi North 15.0 mph 19.6 mph N/A   Mostly Cloudy
8:20 PM 80.6 °F 80.5 °F 55.4 °F 42% 29.98 in 10.0 mi North 17.3 mph - N/A   Overcast
8:40 PM 77.0 °F - 57.2 °F 50% 29.99 in 10.0 mi North 18.4 mph - N/A   Scattered Clouds
9:00 PM 75.2 °F - 57.2 °F 53% 30.01 in 10.0 mi North 16.1 mph - N/A   Clear
9:20 PM 75.2 °F - 57.2 °F 53% 30.03 in 10.0 mi North 13.8 mph - N/A   Partly Cloudy
9:35 PM 73.4 °F - 57.2 °F 57% 30.04 in 10.0 mi North 18.4 mph 21.9 mph N/A   Scattered Clouds
10:00 PM 71.6 °F - 53.6 °F 53% 30.06 in 10.0 mi North 21.9 mph 26.5 mph N/A   Scattered Clouds
10:20 PM 68.0 °F - 53.6 °F 60% 30.06 in 10.0 mi North 23.0 mph 28.8 mph N/A   Mostly Cloudy
11:00 PM 66.2 °F - 50.0 °F 56% 30.09 in 10.0 mi North 25.3 mph 38.0 mph N/A   Clear
11:20 PM 64.4 °F - 50.0 °F 59% 30.10 in 10.0 mi North 25.3 mph 32.2 mph N/A   Clear
11:40 PM 64.4 °F - 48.2 °F 56% 30.11 in 10.0 mi North 20.7 mph 34.5 mph N/A   Scattered Clouds